Time,TemperatureF,DewpointF,PressureIn,WindDirection,WindDirectionDegrees,WindSpeedMPH,WindSpeedGustMPH,Humidity,HourlyPrecipIn,Conditions,Clouds,dailyrainin,SoftwareType,DateUTC
2013-05-27 00:02:00,58.0,44.0,30.10,East,91,1.0,8.0,59,0.00,,,0.00,,2013-05-27 05:02:00,
2013-05-27 00:12:00,58.0,44.0,30.10,East,91,1.0,8.0,59,0.00,,,0.00,,2013-05-27 05:12:00,
2013-05-27 00:22:00,58.0,45.0,30.09,East,98,1.0,12.0,61,0.00,,,0.00,,2013-05-27 05:22:00,
2013-05-27 00:32:00,58.0,45.0,30.09,East,98,1.0,12.0,61,0.00,,,0.00,,2013-05-27 05:32:00,
2013-05-27 00:42:00,58.0,45.0,30.09,East,98,1.0,12.0,61,0.00,,,0.00,,2013-05-27 05:42:00,
2013-05-27 00:52:00,58.0,45.0,30.10,East,95,4.0,10.0,62,0.00,,,0.00,,2013-05-27 05:52:00,
2013-05-27 01:01:00,58.0,45.0,30.10,East,95,4.0,10.0,62,0.00,,,0.00,,2013-05-27 06:01:00,
2013-05-27 01:11:00,58.0,45.0,30.10,East,95,4.0,10.0,62,0.00,,,0.00,,2013-05-27 06:11:00,
2013-05-27 01:21:00,58.0,45.0,30.10,ESE,104,0.0,10.0,62,0.00,,,0.00,,2013-05-27 06:21:00,
2013-05-27 01:32:00,58.0,45.0,30.10,ESE,104,0.0,10.0,62,0.00,,,0.00,,2013-05-27 06:32:00,
2013-05-27 01:42:00,58.0,45.0,30.08,East,95,1.0,8.0,63,0.00,,,0.00,,2013-05-27 06:42:00,
2013-05-27 01:52:00,58.0,45.0,30.08,East,95,1.0,8.0,63,0.00,,,0.00,,2013-05-27 06:52:00,
2013-05-27 02:02:00,58.0,45.0,30.08,East,95,1.0,8.0,63,0.00,,,0.00,,2013-05-27 07:02:00,
2013-05-27 02:11:00,58.0,45.0,30.07,East,81,0.0,11.0,63,0.00,,,0.00,,2013-05-27 07:11:00,
2013-05-27 02:21:00,58.0,45.0,30.07,East,81,0.0,11.0,63,0.00,,,0.00,,2013-05-27 07:21:00,
2013-05-27 02:32:00,58.0,45.0,30.07,East,81,0.0,11.0,63,0.00,,,0.00,,2013-05-27 07:32:00,
2013-05-27 02:42:00,58.0,45.0,30.07,East,81,0.0,11.0,63,0.00,,,0.00,,2013-05-27 07:42:00,
2013-05-27 02:52:00,58.0,45.0,30.07,ESE,117,2.0,12.0,62,0.00,,,0.00,,2013-05-27 07:52:00,
2013-05-27 03:02:00,58.0,45.0,30.07,ESE,117,2.0,12.0,62,0.00,,,0.00,,2013-05-27 08:02:00,
2013-05-27 03:11:00,58.0,45.0,30.07,ESE,117,2.0,12.0,62,0.00,,,0.00,,2013-05-27 08:11:00,
2013-05-27 03:22:00,57.0,45.0,30.07,SE,129,1.0,9.0,63,0.00,,,0.00,,2013-05-27 08:22:00,
2013-05-27 03:32:00,57.0,45.0,30.07,SE,129,1.0,9.0,63,0.00,,,0.00,,2013-05-27 08:32:00,
2013-05-27 03:42:00,57.0,45.0,30.06,ESE,117,3.0,9.0,65,0.00,,,0.00,,2013-05-27 08:42:00,
2013-05-27 03:52:00,57.0,45.0,30.06,ESE,117,3.0,9.0,65,0.00,,,0.00,,2013-05-27 08:52:00,
2013-05-27 04:02:00,57.0,45.0,30.06,ESE,117,3.0,9.0,65,0.00,,,0.00,,2013-05-27 09:02:00,
2013-05-27 04:11:00,57.0,46.0,30.03,East,90,1.0,7.0,66,0.00,,,0.00,,2013-05-27 09:11:00,
2013-05-27 04:21:00,57.0,46.0,30.03,East,90,1.0,7.0,66,0.00,,,0.00,,2013-05-27 09:21:00,
2013-05-27 04:33:00,57.0,46.0,30.03,East,90,1.0,7.0,66,0.00,,,0.00,,2013-05-27 09:33:00,
2013-05-27 04:42:00,57.0,46.0,30.03,East,90,1.0,7.0,66,0.00,,,0.00,,2013-05-27 09:42:00,
2013-05-27 04:53:00,56.0,45.0,30.04,East,98,0.0,9.0,67,0.00,,,0.00,,2013-05-27 09:53:00,
2013-05-27 05:02:00,56.0,45.0,30.04,East,98,0.0,9.0,67,0.00,,,0.00,,2013-05-27 10:02:00,
2013-05-27 05:12:00,56.0,45.0,30.04,East,98,0.0,9.0,67,0.00,,,0.00,,2013-05-27 10:12:00,
2013-05-27 05:22:00,56.0,46.0,30.04,ESE,111,1.0,8.0,68,0.00,,,0.00,,2013-05-27 10:22:00,
2013-05-27 05:32:00,56.0,46.0,30.04,ESE,111,1.0,8.0,68,0.00,,,0.00,,2013-05-27 10:32:00,
2013-05-27 05:42:00,56.0,46.0,30.04,ESE,111,1.0,8.0,68,0.00,,,0.00,,2013-05-27 10:42:00,
2013-05-27 05:52:00,56.0,46.0,30.03,East,89,1.0,6.0,70,0.00,,,0.00,,2013-05-27 10:52:00,
2013-05-27 06:02:00,56.0,46.0,30.03,East,89,1.0,6.0,70,0.00,,,0.00,,2013-05-27 11:02:00,
2013-05-27 06:11:00,56.0,46.0,30.03,East,89,1.0,6.0,70,0.00,,,0.00,,2013-05-27 11:11:00,
2013-05-27 06:22:00,56.0,47.0,30.05,East,93,0.0,6.0,71,0.00,,,0.00,,2013-05-27 11:22:00,
2013-05-27 06:32:00,56.0,47.0,30.05,East,93,0.0,6.0,71,0.00,,,0.00,,2013-05-27 11:32:00,
2013-05-27 06:42:00,56.0,47.0,30.05,East,93,0.0,6.0,71,0.00,,,0.00,,2013-05-27 11:42:00,
2013-05-27 06:52:00,56.0,47.0,30.04,East,82,0.0,6.0,72,0.00,,,0.00,,2013-05-27 11:52:00,
2013-05-27 07:01:00,56.0,47.0,30.04,East,82,0.0,6.0,72,0.00,,,0.00,,2013-05-27 12:01:00,
2013-05-27 07:11:00,56.0,47.0,30.04,East,82,0.0,6.0,72,0.00,,,0.00,,2013-05-27 12:11:00,
2013-05-27 07:21:00,56.0,48.0,30.04,East,81,1.0,12.0,74,0.00,,,0.00,,2013-05-27 12:21:00,
2013-05-27 07:32:00,56.0,48.0,30.04,East,81,1.0,12.0,74,0.00,,,0.00,,2013-05-27 12:32:00,
2013-05-27 07:42:00,56.0,48.0,30.04,East,81,1.0,12.0,74,0.00,,,0.00,,2013-05-27 12:42:00,
2013-05-27 07:52:00,55.0,47.0,30.03,ESE,104,1.0,15.0,74,0.00,,,0.00,,2013-05-27 12:52:00,
2013-05-27 08:01:00,55.0,47.0,30.03,ESE,104,1.0,15.0,74,0.00,,,0.00,,2013-05-27 13:01:00,
2013-05-27 08:11:00,55.0,47.0,30.03,ESE,104,1.0,15.0,74,0.00,,,0.00,,2013-05-27 13:11:00,
2013-05-27 08:21:00,55.0,47.0,30.02,East,87,1.0,8.0,74,0.00,,,0.00,,2013-05-27 13:21:00,
2013-05-27 08:32:00,55.0,47.0,30.02,East,87,1.0,8.0,74,0.00,,,0.00,,2013-05-27 13:32:00,
2013-05-27 08:42:00,55.0,47.0,30.02,East,87,1.0,8.0,74,0.00,,,0.00,,2013-05-27 13:42:00,
2013-05-27 08:52:00,55.0,47.0,30.02,SE,130,4.0,13.0,74,0.00,,,0.00,,2013-05-27 13:52:00,
2013-05-27 09:01:00,55.0,47.0,30.02,SE,130,4.0,13.0,74,0.00,,,0.00,,2013-05-27 14:01:00,
2013-05-27 09:11:00,55.0,47.0,30.02,SE,130,4.0,13.0,74,0.00,,,0.00,,2013-05-27 14:11:00,
2013-05-27 09:21:00,55.0,47.0,30.00,ENE,78,0.0,12.0,75,0.00,,,0.00,,2013-05-27 14:21:00,
2013-05-27 09:32:00,55.0,47.0,30.00,ENE,78,0.0,12.0,75,0.00,,,0.00,,2013-05-27 14:32:00,
2013-05-27 09:42:00,55.0,47.0,30.00,ENE,78,0.0,12.0,75,0.00,,,0.00,,2013-05-27 14:42:00,
2013-05-27 09:52:00,57.0,48.0,30.03,East,90,3.0,11.0,71,0.00,,,0.00,,2013-05-27 14:52:00,
2013-05-27 10:01:00,57.0,48.0,30.03,East,90,3.0,11.0,71,0.00,,,0.00,,2013-05-27 15:01:00,
2013-05-27 10:11:00,57.0,47.0,30.01,East,101,6.0,14.0,68,0.00,,,0.00,,2013-05-27 15:11:00,
2013-05-27 10:21:00,57.0,47.0,30.01,East,101,6.0,14.0,68,0.00,,,0.00,,2013-05-27 15:21:00,
2013-05-27 10:33:00,57.0,47.0,30.01,East,101,6.0,14.0,68,0.00,,,0.00,,2013-05-27 15:33:00,
2013-05-27 10:43:00,57.0,46.0,30.01,ENE,77,4.0,14.0,67,0.00,,,0.00,,2013-05-27 15:43:00,
2013-05-27 10:53:00,57.0,46.0,30.01,ENE,77,4.0,14.0,67,0.00,,,0.00,,2013-05-27 15:53:00,
2013-05-27 11:03:00,57.0,46.0,30.01,ENE,77,4.0,14.0,67,0.00,,,0.00,,2013-05-27 16:03:00,
2013-05-27 11:12:00,57.0,46.0,30.01,ENE,77,4.0,14.0,67,0.00,,,0.00,,2013-05-27 16:12:00,
2013-05-27 11:23:00,57.0,46.0,29.99,ESE,102,2.0,16.0,66,0.00,,,0.00,,2013-05-27 16:23:00,
2013-05-27 11:33:00,57.0,46.0,29.99,ESE,102,2.0,16.0,66,0.00,,,0.00,,2013-05-27 16:33:00,
2013-05-27 11:42:00,57.0,46.0,29.99,ESE,102,2.0,16.0,66,0.00,,,0.00,,2013-05-27 16:42:00,
2013-05-27 11:52:00,57.0,46.0,29.98,ESE,108,6.0,13.0,67,0.00,,,0.00,,2013-05-27 16:52:00,
2013-05-27 12:02:00,57.0,46.0,29.98,ESE,108,6.0,13.0,67,0.00,,,0.00,,2013-05-27 17:02:00,
2013-05-27 12:11:00,57.0,47.0,29.96,ENE,66,4.0,16.0,68,0.00,,,0.00,,2013-05-27 17:11:00,
2013-05-27 12:22:00,57.0,47.0,29.96,ENE,66,4.0,16.0,68,0.00,,,0.00,,2013-05-27 17:22:00,
2013-05-27 12:32:00,57.0,47.0,29.96,ENE,66,4.0,16.0,68,0.00,,,0.00,,2013-05-27 17:32:00,
2013-05-27 12:43:00,57.0,47.0,29.96,ENE,66,4.0,16.0,68,0.00,,,0.00,,2013-05-27 17:43:00,
2013-05-27 12:52:00,58.0,49.0,29.96,East,80,4.0,11.0,71,0.00,,,0.00,,2013-05-27 17:52:00,
2013-05-27 13:02:00,58.0,49.0,29.96,East,80,4.0,11.0,71,0.00,,,0.00,,2013-05-27 18:02:00,
2013-05-27 13:11:00,58.0,49.0,29.96,East,80,4.0,11.0,71,0.00,,,0.00,,2013-05-27 18:11:00,
2013-05-27 13:22:00,58.0,48.0,29.94,East,79,6.0,16.0,70,0.00,,,0.00,,2013-05-27 18:22:00,
2013-05-27 13:32:00,58.0,48.0,29.94,East,79,6.0,16.0,70,0.00,,,0.00,,2013-05-27 18:32:00,
2013-05-27 13:42:00,58.0,48.0,29.94,East,79,6.0,16.0,70,0.00,,,0.00,,2013-05-27 18:42:00,
2013-05-27 13:52:00,58.0,48.0,29.96,ENE,71,2.0,11.0,70,0.00,,,0.00,,2013-05-27 18:52:00,
2013-05-27 14:01:00,58.0,48.0,29.96,ENE,71,2.0,11.0,70,0.00,,,0.00,,2013-05-27 19:01:00,
2013-05-27 14:11:00,58.0,48.0,29.96,ENE,71,2.0,11.0,70,0.00,,,0.00,,2013-05-27 19:11:00,
2013-05-27 14:21:00,58.0,48.0,29.95,East,83,3.0,13.0,70,0.00,,,0.00,,2013-05-27 19:21:00,
2013-05-27 14:32:00,58.0,48.0,29.95,East,83,3.0,13.0,70,0.00,,,0.00,,2013-05-27 19:32:00,
2013-05-27 14:42:00,58.0,48.0,29.95,East,83,3.0,13.0,70,0.00,,,0.00,,2013-05-27 19:42:00,
2013-05-27 14:52:00,59.0,49.0,29.95,ENE,66,3.0,13.0,69,0.00,,,0.00,,2013-05-27 19:52:00,
2013-05-27 15:01:00,59.0,49.0,29.95,ENE,66,3.0,13.0,69,0.00,,,0.00,,2013-05-27 20:01:00,
2013-05-27 15:11:00,59.0,49.0,29.95,ENE,66,3.0,13.0,69,0.00,,,0.00,,2013-05-27 20:11:00,
2013-05-27 15:22:00,59.0,50.0,29.96,SE,126,3.0,13.0,71,0.00,,,0.00,,2013-05-27 20:22:00,
2013-05-27 15:32:00,59.0,50.0,29.96,SE,126,3.0,13.0,71,0.00,,,0.00,,2013-05-27 20:32:00,
2013-05-27 15:42:00,60.0,51.0,29.95,East,96,3.0,9.0,71,0.00,,,0.00,,2013-05-27 20:42:00,
2013-05-27 15:52:00,60.0,51.0,29.95,East,96,3.0,9.0,71,0.00,,,0.00,,2013-05-27 20:52:00,
2013-05-27 16:01:00,60.0,51.0,29.95,East,96,3.0,9.0,71,0.00,,,0.00,,2013-05-27 21:01:00,
2013-05-27 16:12:00,60.0,51.0,29.94,ESE,102,1.0,12.0,72,0.00,,,0.00,,2013-05-27 21:12:00,
2013-05-27 16:21:00,60.0,51.0,29.94,ESE,102,1.0,12.0,72,0.00,,,0.00,,2013-05-27 21:21:00,
2013-05-27 16:33:00,60.0,51.0,29.94,ESE,102,1.0,12.0,72,0.00,,,0.00,,2013-05-27 21:33:00,
2013-05-27 16:43:00,60.0,51.0,29.94,ESE,115,2.0,12.0,73,0.00,,,0.00,,2013-05-27 21:43:00,
2013-05-27 16:53:00,60.0,51.0,29.94,ESE,115,2.0,12.0,73,0.00,,,0.00,,2013-05-27 21:53:00,
2013-05-27 17:02:00,60.0,51.0,29.94,ESE,115,2.0,12.0,73,0.00,,,0.00,,2013-05-27 22:02:00,
2013-05-27 17:12:00,60.0,52.0,29.94,ESE,105,1.0,12.0,75,0.00,,,0.00,,2013-05-27 22:12:00,
2013-05-27 17:22:00,60.0,52.0,29.94,ESE,105,1.0,12.0,75,0.00,,,0.00,,2013-05-27 22:22:00,
2013-05-27 17:32:00,60.0,52.0,29.94,ESE,105,1.0,12.0,75,0.00,,,0.00,,2013-05-27 22:32:00,
2013-05-27 17:42:00,60.0,52.0,29.94,East,87,3.0,12.0,76,0.00,,,0.00,,2013-05-27 22:42:00,
2013-05-27 17:53:00,60.0,52.0,29.94,East,87,3.0,12.0,76,0.00,,,0.00,,2013-05-27 22:53:00,
2013-05-27 18:02:00,60.0,52.0,29.94,East,87,3.0,12.0,76,0.00,,,0.00,,2013-05-27 23:02:00,
2013-05-27 18:12:00,60.0,53.0,29.92,East,101,0.0,9.0,77,0.00,,,0.00,,2013-05-27 23:12:00,
2013-05-27 18:22:00,60.0,53.0,29.92,East,101,0.0,9.0,77,0.00,,,0.00,,2013-05-27 23:22:00,
2013-05-27 18:32:00,60.0,53.0,29.92,East,101,0.0,9.0,77,0.00,,,0.00,,2013-05-27 23:32:00,
2013-05-27 18:42:00,60.0,53.0,29.92,East,101,0.0,9.0,77,0.00,,,0.00,,2013-05-27 23:42:00,
2013-05-27 18:52:00,59.0,52.0,29.91,East,84,4.0,15.0,77,0.00,,,0.00,,2013-05-27 23:52:00,
2013-05-27 19:01:00,59.0,52.0,29.91,East,84,4.0,15.0,77,0.00,,,0.00,,2013-05-28 00:01:00,
2013-05-27 19:11:00,59.0,52.0,29.91,East,84,4.0,15.0,77,0.00,,,0.00,,2013-05-28 00:11:00,
2013-05-27 19:21:00,59.0,52.0,29.91,East,96,3.0,9.0,77,0.00,,,0.00,,2013-05-28 00:21:00,
2013-05-27 19:31:00,59.0,52.0,29.91,East,96,3.0,9.0,77,0.00,,,0.00,,2013-05-28 00:31:00,
2013-05-27 19:42:00,59.0,52.0,29.91,East,96,3.0,9.0,77,0.00,,,0.00,,2013-05-28 00:42:00,
2013-05-27 19:52:00,59.0,52.0,29.91,ESE,115,2.0,7.0,77,0.00,,,0.00,,2013-05-28 00:52:00,
2013-05-27 20:01:00,59.0,52.0,29.91,ESE,115,2.0,7.0,77,0.00,,,0.00,,2013-05-28 01:01:00,
2013-05-27 20:11:00,59.0,52.0,29.91,ESE,115,2.0,7.0,77,0.00,,,0.00,,2013-05-28 01:11:00,
2013-05-27 20:21:00,59.0,52.0,29.92,East,94,1.0,6.0,78,0.00,,,0.00,,2013-05-28 01:21:00,
2013-05-27 20:31:00,59.0,52.0,29.92,East,94,1.0,6.0,78,0.00,,,0.00,,2013-05-28 01:31:00,
2013-05-27 20:42:00,59.0,52.0,29.92,East,94,1.0,6.0,78,0.00,,,0.00,,2013-05-28 01:42:00,
2013-05-27 20:52:00,59.0,52.0,29.93,SE,126,0.0,19.0,79,0.00,,,0.00,,2013-05-28 01:52:00,
2013-05-27 21:02:00,59.0,52.0,29.93,SE,126,0.0,19.0,79,0.00,,,0.00,,2013-05-28 02:02:00,
2013-05-27 21:11:00,59.0,52.0,29.93,SE,126,0.0,19.0,79,0.00,,,0.00,,2013-05-28 02:11:00,
2013-05-27 21:21:00,57.0,53.0,29.92,ESE,123,2.0,5.0,86,0.00,,,0.00,,2013-05-28 02:21:00,
2013-05-27 21:32:00,57.0,53.0,29.92,ESE,123,2.0,5.0,86,0.00,,,0.00,,2013-05-28 02:32:00,
2013-05-27 21:42:00,57.0,53.0,29.92,ESE,123,2.0,5.0,86,0.00,,,0.00,,2013-05-28 02:42:00,
2013-05-27 21:52:00,56.0,53.0,29.91,ESE,117,2.0,7.0,90,0.00,,,0.00,,2013-05-28 02:52:00,
2013-05-27 22:01:00,56.0,53.0,29.91,ESE,117,2.0,7.0,90,0.00,,,0.00,,2013-05-28 03:01:00,
2013-05-27 22:11:00,56.0,53.0,29.91,ESE,117,2.0,7.0,90,0.00,,,0.00,,2013-05-28 03:11:00,
2013-05-27 22:21:00,56.0,53.0,29.92,NE,53,2.0,9.0,91,0.00,,,0.00,,2013-05-28 03:21:00,
2013-05-27 22:33:00,56.0,53.0,29.92,NE,53,2.0,9.0,91,0.00,,,0.00,,2013-05-28 03:33:00,
2013-05-27 22:43:00,56.0,53.0,29.92,NE,53,2.0,9.0,91,0.00,,,0.00,,2013-05-28 03:43:00,
2013-05-27 22:53:00,56.0,53.0,29.91,East,82,4.0,10.0,90,0.00,,,0.00,,2013-05-28 03:53:00,
2013-05-27 23:02:00,56.0,53.0,29.91,East,82,4.0,10.0,90,0.00,,,0.00,,2013-05-28 04:02:00,
2013-05-27 23:13:00,56.0,53.0,29.91,East,82,4.0,10.0,90,0.00,,,0.00,,2013-05-28 04:13:00,
2013-05-27 23:22:00,56.0,53.0,29.91,East,95,2.0,9.0,89,0.00,,,0.00,,2013-05-28 04:22:00,
2013-05-27 23:33:00,56.0,53.0,29.91,East,95,2.0,9.0,89,0.00,,,0.00,,2013-05-28 04:33:00,
2013-05-27 23:43:00,56.0,53.0,29.91,East,95,2.0,9.0,89,0.00,,,0.00,,2013-05-28 04:43:00,
2013-05-27 23:53:00,56.0,53.0,29.91,East,89,3.0,9.0,89,0.00,,,0.00,,2013-05-28 04:53:00,